Flag for Kazakhstan Weather past 2 weeks in Astana, Kazakhstan

Now
66 °F

Passing clouds.


Feels Like: 66 °F
Forecast: 55 / 75 °F
Wind: 3 mph from Northwest

Location: Astana

Current Time: May 28, 2015 at 11:28:00 PM

Latest Report: May 28, 2015 at 11:00 PM


Visibility: N/A

Pressure: 29.92 "Hg

Humidity: 56%

Dew point: 50 °F

Location of AstanaLocation

Historic Weather in Astana — Graph

°F

Astana temperature yesterday

Maximum temperature yesterday: 73 °F (at 1:30 PM)
Minimum temperature yesterday: 55 °F (at 1:30 AM)
Average temperature yesterday: 64 °F

Past Weeks' High & Low Weather Summary

 TemperatureHumidityPressure
High75 °F (May 28, 2:00 PM)100% (May 19, 12:00 AM)30.15 "Hg (May 19, 12:00 AM)
Low41 °F (May 21, 4:00 AM)29% (May 26, 6:30 PM)29.36 "Hg (May 16, 10:30 PM)
Average58 °F72%29.86 "Hg
* Reported May 13 10:00 PM — May 28 10:30 PM, Astana, Weather by CustomWeather, © 2015

Note: Actual official high and low records may vary slightly from our data, if they occured in-between our weather recording intervals... More about our weather records

Advertising

Astana weather history for previous 24 hours

 ConditionsComfort  
Time TempWeatherWind HumidityBarometerVisibility
10:30 PM
Thu, May 28
66 °FPassing clouds.3 mph52%29.92 "HgN/A
10:00 PM68 °FSunny.1 mph49%29.92 "Hg10 mi
9:30 PM68 °FSunny.1 mph49%29.92 "Hg10 mi
9:00 PM70 °FSunny.3 mph40%29.92 "Hg10 mi
8:30 PM72 °FSunny.3 mph36%29.92 "Hg10 mi
8:00 PM72 °FSunny.3 mph38%29.92 "Hg10 mi
7:30 PM73 °FPassing clouds.6 mph33%29.92 "HgN/A
7:00 PM73 °FPassing clouds.8 mph31%29.92 "HgN/A
6:30 PM73 °FPassing clouds.10 mph33%29.92 "HgN/A
6:00 PM73 °FPassing clouds.10 mph31%29.92 "HgN/A
5:30 PM73 °FPassing clouds.13 mph33%29.92 "HgN/A
5:00 PM73 °FPassing clouds.13 mph31%29.92 "HgN/A
4:30 PM72 °FPassing clouds.13 mph31%29.92 "HgN/A
4:00 PM73 °FPassing clouds.15 mph33%29.92 "HgN/A
3:30 PM75 °FPassing clouds.15 mph29%29.92 "HgN/A
3:00 PM73 °FSunny.15 mph31%29.92 "Hg10 mi
2:30 PM73 °FSunny.20 mph29%29.92 "Hg10 mi
2:00 PM75 °FPassing clouds.17 mph34%29.92 "HgN/A
1:30 PM73 °FSunny.15 mph33%29.92 "Hg10 mi
1:00 PM73 °FPassing clouds.15 mph41%29.92 "HgN/A
12:30 PM73 °FSunny.15 mph41%29.92 "Hg10 mi
12:00 PM73 °FBroken clouds.15 mph41%29.92 "HgN/A
11:30 AM72 °FScattered clouds.15 mph47%29.92 "HgN/A
11:00 AM72 °FSunny.17 mph41%29.92 "Hg10 mi
10:30 AM70 °FSunny.15 mph40%29.95 "Hg10 mi
10:00 AM70 °FSunny.13 mph38%29.95 "Hg10 mi
9:30 AM68 °FSunny.10 mph46%29.95 "Hg10 mi
9:00 AM66 °FSunny.8 mph56%29.95 "Hg10 mi
8:30 AM64 °FSunny.8 mph60%29.98 "Hg10 mi
8:00 AM63 °FSunny.8 mph68%29.98 "Hg10 mi
7:30 AM59 °FSunny.8 mph72%29.98 "Hg10 mi
7:00 AM57 °FSunny.6 mph77%29.98 "Hg10 mi
6:30 AM54 °FSunny.6 mph88%29.98 "Hg10 mi
6:00 AM50 °FClear.6 mph88%29.98 "Hg10 mi
5:30 AM50 °FClear.3 mph88%29.98 "Hg10 mi
5:00 AM48 °FClear.6 mph87%29.98 "Hg10 mi
4:30 AM55 °FClear.1 mph63%29.98 "Hg10 mi
4:00 AM59 °FClear.3 mph59%29.98 "Hg10 mi
3:30 AM57 °FClear.3 mph67%30.01 "Hg10 mi
3:00 AM57 °FClear.3 mph72%30.01 "Hg10 mi
2:30 AM55 °FClear.6 mph82%30.01 "Hg10 mi
2:00 AM54 °FClear.3 mph82%30.01 "Hg10 mi
1:30 AM59 °FClear.1 mph77%30.01 "Hg10 mi
1:00 AM61 °FClear.3 mph77%30.01 "Hg10 mi
12:30 AM59 °FClear.6 mph88%30.01 "Hg10 mi
12:00 AM61 °FClear.3 mph88%30.04 "Hg10 mi
11:30 PM
Wed, May 27
61 °FClear.8 mph88%30.04 "Hg10 mi
11:00 PM59 °FPassing clouds.8 mph88%30.04 "Hg6 mi
Weather by CustomWeather, © 2015

See weather overviewHow to use our weather pages